一网星座-0240星 (ONEWEB-0240 )

导读

ONEWEB-0240是英国OneWeb星座下的低轨互联网通信卫星,于2021年5月28日成功发射入轨。它运行在近地轨道,属于OneWeb一期全球通信星座的组成部分。OneWeb星座旨在为全球提供宽带互联网接入服务,主要服务电信运营商客户。遵循空间碎片规范,寿命末期会主动离轨,保障轨道环境安全,助力全球偏远地区网络覆盖。

基本信息
目录编号:
48785
目录名称:
ONEWEB-0240
国际标识:
2021-045U
轨道中心:
EARTH
卫星名称:
一网星座-0240星
卫星全名:
一网星座-0240星 (ONEWEB-0240 )
卫星状态:
在轨 (已飞行1886 天)
发射日期:
2021-05-28 UTC
国别 :
英国 (GB)
星等 :
--
轨道信息
数据来源 国际轨道数据 AOE轨道数据
星历时间 2026-07-27T21:39:56+0800
9小时前
查看轨道信息
2026-07-25T01:00:00+0800
3天前
查看轨道信息
半长轴 7579.904km 7579.908km
偏心率 0.0002391 0.0002234
轨道倾角 87.898° 87.898°
近地点辐角 98.143° 90.219°
升交点赤经 251.140° 251.710°
平近点角 261.997° 47.719°
近地点 1199.954km 1200.077km
远地点 1203.58km 1203.465km
周期 109.460分钟 109.460分钟
每日圈数 13.155496 13.155485
详细信息
平衡模式:
三轴稳定
覆盖范围:
全球
运营商:
一网卫星公司
运营商所在国:
英国
制造商(研发单位):
一网卫星公司
制造商所在国:
英国
使用方式:
暂无
卫星简介
OneWeb卫星网络由648颗重约125公斤的微型卫星组成,运行在1200公里的轨道上。 每颗卫星都能够提供至少每秒8千兆位的吞吐量,以使用其高吞吐量的Ku频段有效载荷为家庭和移动平台提供互联网接入。该卫星仍在工作。
2D轨道图
3D轨道图
轨道高度分析图
轨道倾角分析图
轨道综合分析图
查看轨道综合分析图